[[{"header":{"parameterUnit":"m.s-1","parameterCategory":1,"la1":30.2991,"la2":30.254,"lo1":-89.0895,"lo2":-89.0444,"dy":0.0017,"dx":0.0017,"nx":28,"ny":28,"refTime":"2024-07-21T09:00:00:Z","depth":0,"parameterNumber":2,"parameterNumberName":"U-component_of_WINDS"},"data":[0,0,0,0,0,0,0,0,0,0,0,0,0,0,0,0,0,0,0,0,0,0,0,0,0,0,0,0,0,0,0,0,0,0,0,0,0,0,0,0,0,0,0,0,0,0,0,0,0,0,0,0,0,0,0,0,0,0,-0.1649,-0.1649,0,-0.1631,-0.1631,-0.1631,-0.1621,-0.1621,-0.1621,-0.1621,-0.16,-0.16,-0.1599,0,0,0,0,0,0,0,0,0,0,0,0,0,-0.1674,-0.1674,-0.165,-0.1649,-0.1649,-0.1631,-0.1631,-0.1631,-0.1621,-0.1621,-0.1621,-0.1621,-0.1601,-0.16,-0.1599,0,0,0,0,0,0,0,0,0,0,0,0,0,-0.166,-0.1673,-0.165,-0.1642,-0.1641,-0.1631,-0.1631,-0.1631,-0.1621,-0.1621,-0.1621,-0.1621,-0.1601,-0.16,-0.1599,-0.1595,0,0,-0.1597,-0.1597,0,0,0,0,0,0,0,0,-0.1661,-0.1659,-0.1643,-0.1642,-0.1642,-0.1628,-0.1632,-0.1619,-0.1621,-0.1628,-0.1621,-0.1621,-0.161,-0.1608,-0.1605,-0.1594,-0.1593,-0.1597,-0.1596,-0.1596,-0.1596,0,0,0,0,0,0,0,-0.1662,-0.166,-0.1642,-0.1643,-0.1642,-0.1639,-0.1637,-0.163,-0.1619,-0.1628,-0.1627,-0.1625,-0.1609,-0.1605,-0.1604,-0.1593,-0.1597,-0.1596,-0.1596,-0.1595,-0.1577,-0.1577,0,0,0,0,0,0,-0.1664,-0.1661,-0.1643,-0.1642,-0.1651,-0.1638,-0.1636,-0.1633,-0.1619,-0.1617,-0.1625,-0.1625,-0.1607,-0.1605,-0.1603,-0.1597,-0.1596,-0.1595,-0.1595,-0.1577,-0.1577,-0.1577,0,0,0,0,0,0,-0.1665,-0.1663,-0.1644,-0.1651,-0.1648,-0.1638,-0.1634,-0.1632,-0.1629,-0.1617,-0.1615,-0.1623,-0.1607,-0.1605,-0.1597,-0.1596,-0.1595,-0.1594,-0.1577,-0.1577,-0.1577,-0.1585,0,0,0,0,0,0,-0.1666,-0.1663,-0.1662,-0.1651,-0.1648,-0.1638,-0.1634,-0.1632,-0.1627,-0.1627,-0.1615,-0.1613,-0.1607,-0.1598,-0.1596,-0.1595,-0.1594,-0.1577,-0.1577,-0.1577,-0.1585,-0.1586,-0.1586,0,0,0,0,0,-0.1667,-0.1665,-0.1662,-0.166,-0.1646,-0.1638,-0.1636,-0.1629,-0.1627,-0.1626,-0.1618,-0.1614,-0.1597,-0.1598,-0.1595,-0.1594,-0.1577,-0.1577,-0.1577,-0.1585,-0.1585,-0.1586,0,0,0,0,0,0,-0.1676,-0.1663,-0.166,-0.1655,-0.1648,-0.1637,-0.1635,-0.163,-0.1623,-0.1622,-0.1613,-0.161,-0.1604,-0.1598,-0.1599,-0.1589,-0.1586,-0.1586,-0.1593,-0.1594,-0.1594,-0.1596,-0.1593,0,0,0,0,0,-0.1677,-0.1672,-0.1661,-0.1658,-0.1654,-0.1645,-0.1641,-0.1636,-0.1628,-0.1625,-0.1617,-0.1609,-0.1602,-0.1597,-0.159,-0.1584,-0.1581,-0.1582,-0.1582,-0.1583,-0.1582,-0.1578,-0.1578,-0.1577,-0.1577,-0.1577,0,0,-0.168,-0.1673,-0.167,-0.1659,-0.1653,-0.1648,-0.1643,-0.1637,-0.1632,-0.1624,-0.1617,-0.161,-0.1601,-0.1594,-0.159,-0.1589,-0.1582,-0.1583,-0.1583,-0.1583,-0.1578,-0.1578,-0.1578,-0.1577,-0.1577,-0.1577,0,0,-0.1682,-0.1676,-0.1673,-0.1667,-0.1657,-0.1651,-0.165,-0.1639,-0.1635,-0.1628,-0.1621,-0.1615,-0.1603,-0.1596,-0.1591,-0.159,-0.1585,-0.1588,-0.159,-0.1586,-0.1586,-0.1586,-0.1586,-0.1585,-0.1587,-0.1587,-0.1587,0,-0.1687,-0.1679,-0.1671,-0.1666,-0.1661,-0.1653,-0.1649,-0.1643,-0.1632,-0.1628,-0.1627,-0.1611,-0.1604,-0.1595,-0.1595,-0.1591,-0.1589,-0.1589,-0.1587,-0.1587,-0.1587,-0.1586,-0.1586,-0.1588,-0.1588,-0.1588,-0.1588,0,-0.1685,-0.1679,-0.1677,-0.1667,-0.1662,-0.1657,-0.1648,-0.1643,-0.1638,-0.1632,-0.1624,-0.1615,-0.1605,-0.1603,-0.1598,-0.1593,-0.1592,-0.1589,-0.1586,-0.1587,-0.1586,-0.1586,-0.1588,-0.1588,-0.1588,-0.1588,0,0,-0.1693,-0.1678,-0.1677,-0.1672,-0.1661,-0.1656,-0.1651,-0.1642,-0.1638,-0.163,-0.1625,-0.1614,-0.1611,-0.1605,-0.1599,-0.1596,-0.1595,-0.1593,-0.1592,-0.1593,-0.1588,-0.1591,-0.1591,-0.1591,-0.1591,-0.1591,-0.1589,0,-0.1694,-0.1684,-0.1677,-0.1669,-0.1664,-0.1656,-0.165,-0.1643,-0.1636,-0.163,-0.1622,-0.1615,-0.1611,-0.1608,-0.1604,-0.1596,-0.1593,-0.1596,-0.1585,-0.1585,-0.1588,-0.159,-0.1593,-0.1592,-0.1588,-0.1588,-0.1588,0,-0.1694,-0.1686,-0.1679,-0.1668,-0.1665,-0.1661,-0.1652,-0.1646,-0.1636,-0.1632,-0.1625,-0.1619,-0.1611,-0.1609,-0.1599,-0.16,-0.1595,-0.1591,-0.159,-0.1589,-0.1587,-0.1589,-0.1591,-0.1591,-0.1588,-0.1588,-0.1588,0,-0.17,-0.1689,-0.1682,-0.1678,-0.1665,-0.1662,-0.1657,-0.1647,-0.1642,-0.1634,-0.163,-0.1621,-0.1616,-0.1608,-0.1599,-0.1598,-0.1589,-0.1586,-0.1585,-0.1585,-0.1584,-0.1584,-0.1585,-0.158,-0.158,-0.158,-0.158,0,-0.1702,-0.1698,-0.1685,-0.1681,-0.1676,-0.1667,-0.1661,-0.1655,-0.1646,-0.164,-0.1632,-0.1627,-0.1615,-0.1608,-0.1601,-0.1593,-0.159,-0.1586,-0.1584,-0.1587,-0.1587,-0.1584,-0.1584,-0.158,-0.158,-0.158,-0.158,0,-0.1709,-0.17,-0.1693,-0.1681,-0.1678,-0.1674,-0.1664,-0.1659,-0.1652,-0.1645,-0.1642,-0.1631,-0.1622,-0.1612,-0.16,-0.1595,-0.1587,-0.1585,-0.1591,-0.159,-0.1589,-0.1589,-0.1587,-0.1587,-0.1583,-0.1583,-0.1583,0,-0.1711,-0.1707,-0.1695,-0.1691,-0.1685,-0.1678,-0.1673,-0.1664,-0.1658,-0.1647,-0.1643,-0.1634,-0.1626,-0.1612,-0.1602,-0.1592,-0.1589,-0.1589,-0.1588,-0.159,-0.1589,-0.1589,-0.1589,-0.159,-0.159,-0.159,-0.159,0,-0.1715,-0.171,-0.1704,-0.1695,-0.1689,-0.1682,-0.1674,-0.1671,-0.1659,-0.1653,-0.1644,-0.1638,-0.1625,-0.1616,-0.1605,-0.1598,-0.1592,-0.1591,-0.159,-0.1592,-0.1596,-0.1594,-0.1592,-0.1591,-0.1591,-0.1591,-0.1591,-0.1591,-0.1719,-0.1715,-0.1706,-0.1698,-0.1691,-0.1684,-0.1679,-0.1671,-0.1664,-0.1653,-0.1648,-0.1639,-0.1628,-0.1613,-0.1606,-0.1598,-0.1596,-0.1595,-0.1594,-0.1594,-0.1595,-0.1597,-0.1596,-0.1596,-0.1596,-0.1596,-0.1596,0,-0.1722,-0.1716,-0.1709,-0.1698,-0.1692,-0.1687,-0.1678,-0.1673,-0.1665,-0.1656,-0.1649,-0.1638,-0.1628,-0.1617,-0.1607,-0.1602,-0.1599,-0.16,-0.16,-0.1599,-0.1597,-0.1599,-0.1603,-0.1603,-0.1603,-0.1603,-0.1603,-0.1603,-0.1724,-0.1717,-0.1711,-0.1701,-0.1694,-0.1686,-0.1681,-0.1674,-0.1666,-0.1655,-0.1647,-0.164,-0.163,-0.1619,-0.1609,-0.1606,-0.1603,-0.1604,-0.16,-0.1599,-0.1599,-0.1598,-0.16,-0.1603,-0.1603,-0.1602,-0.1602,-0.1602]},{"header":{"parameterUnit":"m.s-1","parameterCategory":1,"la1":30.2991,"la2":30.254,"lo1":-89.0895,"lo2":-89.0444,"dy":0.0017,"dx":0.0017,"nx":28,"ny":28,"refTime":"2024-07-21T09:00:00:Z","depth":0,"parameterNumber":3,"parameterNumberName":"V-component_of_WINDS"},"data":[0,0,0,0,0,0,0,0,0,0,0,0,0,0,0,0,0,0,0,0,0,0,0,0,0,0,0,0,0,0,0,0,0,0,0,0,0,0,0,0,0,0,0,0,0,0,0,0,0,0,0,0,0,0,0,0,0,0,-1.0284,-1.0284,0,-1.0277,-1.0277,-1.0277,-1.0288,-1.0288,-1.0289,-1.0289,-1.0281,-1.0281,-1.028,0,0,0,0,0,0,0,0,0,0,0,0,0,-1.0303,-1.0303,-1.0284,-1.0284,-1.0284,-1.0277,-1.0277,-1.0277,-1.0288,-1.0288,-1.0289,-1.0289,-1.0281,-1.0281,-1.028,0,0,0,0,0,0,0,0,0,0,0,0,0,-1.0296,-1.0303,-1.0284,-1.0288,-1.0289,-1.0277,-1.0277,-1.0277,-1.0288,-1.0288,-1.0289,-1.0289,-1.0282,-1.0281,-1.028,-1.0264,0,0,-1.0278,-1.0277,0,0,0,0,0,0,0,0,-1.0296,-1.0295,-1.0288,-1.0288,-1.0288,-1.0284,-1.0281,-1.0273,-1.0288,-1.0288,-1.0289,-1.029,-1.0282,-1.0281,-1.0278,-1.0263,-1.0263,-1.0277,-1.0277,-1.0277,-1.0276,0,0,0,0,0,0,0,-1.0297,-1.0295,-1.0281,-1.0288,-1.0288,-1.029,-1.0289,-1.028,-1.0282,-1.0288,-1.0289,-1.0288,-1.0282,-1.0279,-1.0278,-1.0263,-1.0277,-1.0277,-1.0276,-1.0276,-1.0232,-1.0232,0,0,0,0,0,0,-1.0297,-1.0296,-1.0281,-1.0281,-1.0294,-1.0289,-1.0288,-1.0285,-1.0282,-1.0282,-1.0287,-1.0288,-1.028,-1.0279,-1.0278,-1.0257,-1.0277,-1.0276,-1.0275,-1.0233,-1.0232,-1.0231,0,0,0,0,0,0,-1.0297,-1.0296,-1.0282,-1.0289,-1.0287,-1.0288,-1.0284,-1.0284,-1.0282,-1.0281,-1.0282,-1.0284,-1.0281,-1.0279,-1.0267,-1.0257,-1.0275,-1.0275,-1.0234,-1.0233,-1.0232,-1.0217,0,0,0,0,0,0,-1.0298,-1.0296,-1.029,-1.0288,-1.0287,-1.0271,-1.0283,-1.0284,-1.028,-1.0281,-1.0279,-1.0279,-1.0281,-1.0268,-1.0266,-1.0256,-1.0274,-1.0234,-1.0233,-1.0232,-1.0218,-1.0215,-1.0213,0,0,0,0,0,-1.0298,-1.0286,-1.029,-1.0288,-1.028,-1.0271,-1.027,-1.0273,-1.028,-1.0273,-1.0273,-1.0279,-1.0259,-1.0267,-1.0265,-1.0254,-1.0235,-1.0234,-1.0232,-1.0219,-1.0216,-1.0213,0,0,0,0,0,0,-1.0287,-1.0286,-1.029,-1.0277,-1.0274,-1.0272,-1.0265,-1.0269,-1.0264,-1.0265,-1.0269,-1.0268,-1.0255,-1.0254,-1.0262,-1.0238,-1.0248,-1.0246,-1.0239,-1.0236,-1.0233,-1.0233,-1.0273,0,0,0,0,0,-1.0283,-1.0276,-1.0276,-1.0264,-1.0262,-1.0264,-1.026,-1.0263,-1.0259,-1.0258,-1.0257,-1.0253,-1.0246,-1.0241,-1.0234,-1.0218,-1.0216,-1.021,-1.0207,-1.0205,-1.0203,-1.0192,-1.0189,-1.0226,-1.0226,-1.0226,0,0,-1.0274,-1.0273,-1.0269,-1.0262,-1.026,-1.0251,-1.0263,-1.0254,-1.0248,-1.0257,-1.0244,-1.0243,-1.0239,-1.0224,-1.0218,-1.0223,-1.0192,-1.0203,-1.0202,-1.0201,-1.019,-1.0187,-1.0184,-1.0225,-1.0226,-1.0226,0,0,-1.0254,-1.0254,-1.0243,-1.024,-1.0237,-1.0238,-1.0235,-1.0233,-1.0232,-1.022,-1.0226,-1.0218,-1.0206,-1.0202,-1.0199,-1.0176,-1.018,-1.0174,-1.016,-1.0149,-1.0146,-1.0144,-1.0134,-1.013,-1.0172,-1.0172,-1.0172,0,-1.0244,-1.0233,-1.0237,-1.0227,-1.0223,-1.0231,-1.022,-1.0217,-1.0211,-1.0208,-1.0214,-1.0197,-1.0195,-1.0178,-1.0173,-1.017,-1.0166,-1.0173,-1.0147,-1.0144,-1.0141,-1.0132,-1.0128,-1.0171,-1.0171,-1.0171,-1.0171,0,-1.0219,-1.0211,-1.0203,-1.0197,-1.0192,-1.0182,-1.0184,-1.0178,-1.0181,-1.0181,-1.0167,-1.0165,-1.0157,-1.0153,-1.0156,-1.0137,-1.014,-1.0146,-1.0156,-1.0137,-1.0128,-1.0124,-1.0169,-1.017,-1.017,-1.017,0,0,-1.0192,-1.0188,-1.0185,-1.0181,-1.0177,-1.0171,-1.016,-1.0152,-1.0146,-1.0142,-1.0132,-1.0121,-1.0126,-1.0122,-1.0125,-1.0116,-1.0095,-1.0123,-1.0123,-1.0116,-1.0071,-1.0065,-1.0061,-1.0098,-1.0098,-1.0097,-1.0071,0,-1.0171,-1.0153,-1.0156,-1.0138,-1.0129,-1.0136,-1.0126,-1.0122,-1.0121,-1.0113,-1.0112,-1.0104,-1.0112,-1.011,-1.0101,-1.0099,-1.0086,-1.0102,-1.0088,-1.0087,-1.0087,-1.0056,-1.0051,-1.0026,-1.0067,-1.0067,-1.0066,0,-1.0144,-1.0138,-1.0119,-1.0115,-1.0112,-1.0103,-1.0095,-1.0088,-1.0083,-1.0083,-1.0077,-1.0081,-1.0069,-1.008,-1.0062,-1.0073,-1.0067,-1.0065,-1.0065,-1.0062,-1.0075,-1.0052,-1.0018,-1.0013,-1.0061,-1.0062,-1.0062,0,-1.0124,-1.0112,-1.0098,-1.0095,-1.009,-1.0084,-1.0081,-1.0077,-1.0071,-1.0064,-1.006,-1.0052,-1.0047,-1.004,-1.0041,-1.0049,-1.0022,-1.0034,-1.002,-1.002,-1.0014,-1.0014,-0.9977,-1.0012,-1.0012,-1.0013,-1.0013,0,-1.01,-1.0087,-1.0089,-1.008,-1.0066,-1.0069,-1.0055,-1.0053,-1.0049,-1.0039,-1.0044,-1.0035,-1.0037,-1.0027,-1.0028,-1.0012,-1.001,-1.0009,-1.0009,-1.0007,-1.0007,-1.0003,-1.0004,-1.0012,-1.0012,-1.0012,-1.0012,0,-1.0075,-1.0075,-1.0061,-1.0057,-1.0056,-1.0045,-1.0041,-1.0033,-1.0032,-1.002,-1.0017,-1.0016,-1.0005,-1.0005,-0.9992,-0.9992,-0.9972,-0.9975,-0.9974,-0.9974,-0.996,-0.996,-0.9917,-0.9911,-0.9952,-0.9952,-0.9952,0,-1.0058,-1.0049,-1.0044,-1.0038,-1.0035,-1.0025,-1.0019,-1.0021,-1.0015,-1.0007,-0.9999,-0.9988,-0.998,-0.9961,-0.9959,-0.9949,-0.995,-0.9936,-0.9949,-0.9947,-0.9948,-0.9948,-0.9946,-0.9933,-0.9932,-0.9932,-0.9932,0,-1.0029,-1.0029,-1.0021,-1.0012,-1.0005,-0.9998,-0.9992,-0.9986,-0.9988,-0.998,-0.9968,-0.9962,-0.9948,-0.9937,-0.9926,-0.9923,-0.9927,-0.9928,-0.9924,-0.9922,-0.992,-0.9919,-0.9965,-0.9928,-0.9929,-0.9929,-0.9929,-0.9929,-1.0006,-0.9997,-0.9992,-0.9982,-0.9977,-0.9971,-0.9962,-0.996,-0.9951,-0.994,-0.9941,-0.9928,-0.9921,-0.9908,-0.9903,-0.9892,-0.9897,-0.9892,-0.989,-0.9888,-0.9886,-0.9923,-0.989,-0.9891,-0.9891,-0.9891,-0.9891,0,-0.9975,-0.9972,-0.9963,-0.9953,-0.9945,-0.995,-0.9943,-0.9935,-0.9923,-0.9917,-0.9908,-0.9894,-0.9882,-0.9878,-0.9867,-0.9858,-0.986,-0.9855,-0.9855,-0.9854,-0.9883,-0.9887,-0.9854,-0.9854,-0.9854,-0.9854,-0.9854,-0.9854,-0.9958,-0.9943,-0.9942,-0.9924,-0.9921,-0.9907,-0.9903,-0.9896,-0.9891,-0.9875,-0.9865,-0.9863,-0.9857,-0.9844,-0.9834,-0.9833,-0.9827,-0.9822,-0.9821,-0.9848,-0.9852,-0.9855,-0.9859,-0.9821,-0.9821,-0.9792,-0.9792,-0.9792]}]]